Theta_e
290 289 289 288 286 287 288 288 289 289 288 289 289 287 286 286 287 287 286 286 286 286 287 287 288 288 288 287 288 288 288 289 290 290 291 293 296 299 301 301 302 304 315
289 288 285 285 285 286 287 287 288 288 287 288 287 286 286 286 286 286 286 286 285 285 286 286 287 286 287 287 288 287 288 289 290 291 292 293 295 300 302 302 302 304 314
288 286 285 285 284 284 284 285 286 287 286 286 286 286 286 286 286 286 286 286 285 285 285 285 285 286 286 287 287 287 287 289 290 291 292 294 296 302 303 303 304 305 313
286 285 285 285 284 283 283 283 284 285 286 286 286 286 286 286 286 287 286 286 285 285 285 285 285 286 286 287 287 287 287 288 289 290 292 295 298 301 302 303 304 307 314
285 285 285 284 284 283 283 283 283 284 285 285 286 286 286 287 288 287 286 286 286 286 285 285 285 285 286 287 287 287 287 288 289 289 290 294 299 302 302 303 305 309 311
285 285 285 284 283 283 283 283 284 285 285 286 286 286 287 288 288 287 287 286 286 286 285 285 285 287 286 287 287 287 287 288 289 289 290 296 300 301 303 303 306 311 314
285 285 285 284 284 285 285 285 285 285 286 286 286 287 288 288 288 287 287 286 286 285 285 285 286 287 286 286 287 287 287 289 289 290 292 299 302 301 302 305 309 310 308
287 285 285 285 285 286 286 286 286 286 286 286 287 287 289 289 288 288 287 286 285 285 285 285 286 286 286 286 286 287 288 288 289 291 298 301 302 301 304 307 309 308 309
287 287 286 285 286 286 286 286 286 286 286 287 287 288 289 290 289 288 288 286 285 285 285 286 286 285 286 286 286 287 287 288 289 291 296 302 303 303 305 308 309 308 307
289 287 286 286 285 285 285 286 286 286 286 287 288 288 290 290 288 287 287 286 286 286 286 286 285 286 286 286 286 287 288 288 289 293 301 303 304 305 307 309 309 306 305
288 287 287 286 285 285 285 285 286 286 286 287 288 289 290 291 288 287 287 287 287 287 286 286 286 286 286 287 287 288 288 289 291 298 302 304 305 308 309 309 309 311 312
288 287 287 286 286 285 285 285 285 285 286 287 288 289 289 291 290 288 286 286 286 286 286 286 286 286 287 288 288 289 290 291 295 300 303 303 307 309 308 310 311 312 312
289 287 287 286 286 285 285 285 285 285 286 286 288 289 290 291 291 290 288 287 286 286 286 286 287 287 288 288 289 290 292 295 300 301 302 303 307 308 310 311 311 310 311
289 287 287 286 286 285 285 285 285 285 286 286 287 288 289 291 292 293 290 289 289 288 289 289 289 289 289 290 291 293 296 300 303 302 303 302 303 306 308 311 310 310 311
289 287 287 287 286 285 285 285 285 284 285 285 287 287 289 290 292 293 293 292 291 291 292 293 293 294 295 296 298 298 299 301 302 302 301 302 302 303 303 308 312 312 308
289 287 287 286 286 285 285 285 285 286 287 287 288 289 290 292 294 294 294 295 295 296 294 294 294 295 296 297 298 298 299 301 301 301 302 302 302 304 306 308 310 310 306
289 288 287 287 286 286 285 285 285 286 286 287 289 290 291 291 293 294 296 295 295 297 293 293 294 295 295 297 297 297 297 299 301 302 302 302 303 304 307 304 304 307 300
290 289 287 287 287 286 285 285 284 284 285 285 287 288 291 293 293 294 297 298 295 293 292 292 292 294 295 295 296 297 298 300 301 301 302 302 303 305 303 301 301 301 299
290 290 289 288 287 287 286 285 284 283 283 283 287 290 291 292 295 295 295 292 290 291 291 292 292 294 295 296 297 297 298 299 301 301 300 301 300 303 300 300 300 300 300
290 290 290 289 288 287 286 285 284 283 283 282 282 283 288 295 291 291 290 290 290 290 291 293 294 295 296 296 297 298 299 300 300 302 303 304 304 306 303 301 301 301 303
291 291 290 289 288 288 286 285 285 284 283 282 282 283 285 288 287 288 290 291 291 291 292 294 295 296 297 299 301 301 301 300 302 303 305 304 303 303 303 303 303 302 299
291 291 291 290 289 288 287 287 286 285 284 284 284 285 285 285 286 289 292 293 293 296 297 299 300 299 300 302 304 305 306 304 304 305 305 303 303 303 303 302 299 297 296
291 292 291 291 290 290 288 287 287 286 285 284 284 285 285 285 285 285 288 293 298 299 299 301 302 302 302 304 304 305 306 305 304 305 306 305 303 301 299 298 298 297 296
291 292 292 292 291 291 290 289 288 287 287 286 285 284 284 284 285 285 285 286 286 287 288 292 297 300 302 303 304 305 304 304 304 303 303 302 300 298 296 292 289 286 285
294 291 292 292 292 291 292 291 290 288 288 288 287 286 285 285 285 285 285 286 286 287 287 287 287 287 287 287 287 287 288 289 289 288 288 287 287 286 286 286 286 285 285
294 294 292 291 292 292 291 291 292 291 289 288 288 288 287 287 286 285 285 286 286 287 287 287 287 287 287 287 287 287 287 287 287 288 289 288 288 286 286 286 286 285 284
Wind_Speed
28 32 35 37 34 31 30 29 29 27 23 24 19 17 18 18 21 20 23 23 22 25 27 26 25 27 30 27 26 24 21 14 3 5 4 6 8 9 9 10 7 7 13
31 32 33 33 34 32 29 28 24 23 21 24 16 19 20 20 18 15 18 19 22 20 23 24 29 26 26 25 25 22 22 17 5 9 7 6 8 10 11 10 8 9 13
32 32 34 34 33 32 29 27 22 24 20 19 19 22 21 20 17 11 12 15 20 23 26 26 25 28 26 26 26 25 21 19 10 13 7 8 9 10 9 10 9 10 13
31 33 35 36 35 32 31 27 23 24 22 24 24 23 23 19 12 8 9 13 17 23 29 28 30 27 29 28 29 25 24 21 18 9 10 10 10 13 11 12 10 11 14
32 35 35 34 33 32 31 27 25 25 25 26 26 26 21 14 7 7 12 15 20 25 29 30 28 28 25 30 28 25 25 23 22 14 8 7 10 17 11 10 12 15 17
34 35 37 37 34 31 30 27 29 28 28 28 28 25 20 11 2 6 13 19 23 28 28 28 26 27 30 29 27 27 24 26 22 14 8 12 14 16 13 16 18 15 8
35 39 38 35 31 32 31 28 28 28 28 28 26 25 20 15 6 7 14 22 27 29 29 31 29 31 31 29 27 26 21 26 25 21 17 15 18 21 17 17 13 10 17
36 37 39 37 31 33 30 29 30 29 27 26 26 27 25 23 20 21 20 27 30 31 30 31 28 30 29 29 30 27 24 24 23 19 15 13 20 21 20 15 23 33 29
34 41 39 37 33 35 33 31 30 28 27 26 27 29 29 30 28 27 28 31 33 33 31 27 34 31 30 29 29 29 27 24 20 16 10 13 20 20 19 26 29 29 23
37 36 36 37 33 35 32 31 29 26 27 26 29 33 34 32 28 30 31 32 32 32 32 32 31 31 31 29 30 29 26 24 21 17 13 18 19 20 21 27 33 29 30
33 35 36 38 32 35 32 31 30 27 27 28 29 32 35 34 30 28 29 30 30 30 30 31 32 31 30 27 30 30 31 27 21 17 15 22 22 25 22 26 30 38 32
34 36 35 36 33 34 34 33 32 28 27 27 27 29 33 32 32 26 26 28 28 28 28 29 30 28 25 29 28 28 26 23 19 17 26 28 27 30 32 32 31 36 37
35 36 36 36 34 32 34 34 30 29 26 25 24 25 27 30 34 32 29 27 27 28 27 27 27 24 25 25 25 25 24 19 24 28 29 29 33 33 35 36 35 40 43
34 37 37 35 35 32 32 33 34 31 27 25 25 23 25 27 28 29 32 32 31 32 33 30 28 25 24 23 24 22 20 23 29 33 30 33 37 36 37 39 44 39 39
32 36 38 37 34 32 26 40 36 38 37 26 25 26 24 26 25 29 32 29 29 31 30 28 24 23 25 25 22 25 23 26 31 31 33 32 33 37 37 40 41 36 38
30 34 36 37 36 33 28 23 35 47 40 41 36 32 36 35 36 37 38 38 37 37 33 29 26 25 25 26 24 23 26 30 30 32 33 33 33 35 37 35 39 42 41
27 30 34 36 38 37 31 26 23 29 41 45 41 38 37 38 37 38 37 37 35 37 31 27 28 29 27 27 27 27 27 30 31 32 34 35 38 39 41 39 40 42 37
22 26 30 32 36 39 38 32 28 26 25 30 40 41 35 34 35 34 32 35 34 33 29 27 27 28 28 29 28 29 31 32 33 33 34 36 38 40 39 36 35 38 36
20 23 25 29 33 37 40 39 33 31 29 27 34 37 37 35 34 35 35 35 30 29 29 29 29 29 28 30 30 30 31 33 33 33 34 35 34 38 36 35 35 34 32
17 19 22 26 30 34 37 40 39 35 33 31 34 31 29 39 38 35 35 33 32 30 29 31 29 28 29 30 30 32 33 33 34 34 32 31 31 33 34 33 32 32 27
13 16 18 21 25 27 30 33 36 38 36 36 38 39 37 40 34 35 34 35 34 33 32 32 31 31 30 32 34 35 36 35 34 33 32 31 32 34 33 30 30 29 29
10 12 15 18 19 22 24 26 29 33 36 38 40 43 46 46 40 39 37 35 34 33 32 32 32 32 31 32 32 32 31 30 30 30 31 32 34 34 32 31 30 29 28
7 9 11 13 15 16 19 21 23 25 28 30 32 36 40 42 42 43 42 40 40 38 36 33 32 31 30 30 30 31 32 32 32 32 33 32 31 32 32 32 32 32 31
3 5 7 9 11 13 15 16 17 18 20 22 24 27 29 31 34 35 37 39 41 41 42 40 38 37 35 34 33 32 34 32 31 32 32 33 33 32 33 33 32 32 31
1 1 3 4 6 8 9 11 12 13 14 16 17 19 21 22 25 27 29 31 33 35 36 37 38 37 37 37 36 36 34 32 32 32 33 34 34 32 31 30 28 27 25
3 2 1 1 3 4 5 6 7 8 9 10 11 13 14 15 17 19 20 22 25 28 29 30 30 30 31 32 31 30 29 27 27 25 26 27 27 27 25 24 22 21 19
Wind_Direction
329 326 327 325 323 320 317 317 321 321 315 300 289 304 300 293 280 273 248 238 235 220 197 187 191 182 187 189 188 192 201 208 151 149 157 145 132 142 150 164 167 148 161
338 336 334 337 336 328 324 324 323 316 331 325 323 319 310 301 293 278 251 224 207 202 187 185 191 189 182 182 176 181 189 191 150 132 148 141 139 146 145 158 155 148 155
343 341 342 345 341 338 332 329 331 330 338 342 331 319 319 317 308 282 237 213 201 191 186 187 178 177 180 179 172 176 179 190 174 142 129 141 132 128 123 142 141 148 152
346 346 348 345 345 341 341 339 331 347 343 339 344 337 333 328 311 275 219 198 192 188 183 186 180 170 172 156 161 169 180 186 191 143 119 135 132 144 130 141 125 146 145
350 354 347 344 345 346 348 350 349 356 352 353 348 349 346 341 308 234 201 188 177 173 174 177 177 176 171 171 166 164 169 177 182 178 129 127 137 152 143 155 144 136 128
2 356 352 351 346 347 354 350 350 356 360 359 355 352 356 358 289 199 185 175 167 162 154 159 162 166 162 157 159 162 168 167 168 168 150 137 155 158 153 154 142 129 119
5 359 352 346 352 355 353 353 357 358 1 0 0 8 10 32 50 135 153 158 149 147 143 149 152 147 151 153 158 164 164 176 174 168 155 147 155 154 159 151 155 119 103
2 354 353 352 356 354 356 0 3 3 4 4 10 20 35 56 81 105 129 136 135 136 140 147 143 146 148 147 151 160 163 171 175 167 141 140 157 163 158 147 135 115 117
1 357 354 354 358 360 2 2 5 9 11 15 23 32 46 70 86 94 106 120 121 126 131 135 139 140 150 149 150 155 161 168 170 167 155 145 161 154 155 143 133 122 105
2 358 359 3 2 4 4 5 10 18 20 25 36 40 58 68 81 85 98 112 117 120 124 129 141 144 149 150 157 159 159 161 162 165 144 148 156 149 156 146 139 119 119
3 13 8 13 8 11 9 13 17 23 29 31 42 45 55 75 81 88 94 107 116 120 122 128 139 142 146 151 157 160 156 153 157 151 129 141 147 147 142 144 140 133 138
12 18 18 17 13 21 15 19 23 27 33 34 42 47 49 67 83 97 102 109 114 118 124 131 137 142 148 153 155 151 147 147 147 137 128 135 138 136 139 137 139 142 142
19 21 23 22 23 30 21 22 26 29 35 34 42 49 48 58 79 97 106 110 113 114 120 128 133 139 144 144 142 142 143 148 142 134 132 134 134 140 135 128 137 138 136
23 23 23 25 28 29 39 33 36 31 35 38 38 46 51 58 71 87 97 105 109 112 120 126 128 131 137 135 136 140 144 144 143 137 135 129 129 134 137 138 134 131 123
27 27 28 27 27 30 50 43 44 47 48 48 50 55 57 58 77 99 105 107 114 116 117 116 117 116 114 122 127 122 130 141 139 139 134 131 132 134 131 136 138 135 122
29 29 30 31 30 34 33 50 41 55 66 67 73 76 80 93 100 102 104 109 114 113 98 95 96 101 105 114 117 119 126 136 136 133 133 134 128 130 132 132 138 135 129
31 31 34 37 39 34 31 37 44 43 55 65 72 83 87 90 95 103 115 110 107 114 91 92 94 104 105 115 121 121 120 134 143 136 137 136 136 136 139 138 135 135 128
35 37 37 39 44 46 43 37 42 46 43 42 59 65 84 95 95 97 114 116 93 91 89 92 95 104 112 113 119 123 128 135 138 137 138 137 137 136 135 131 133 132 133
40 40 40 44 47 49 52 49 45 48 50 52 59 68 78 92 102 102 102 93 84 84 91 95 99 112 120 125 127 128 131 132 137 136 134 134 134 138 131 131 133 134 133
45 45 45 46 49 50 50 52 51 48 47 50 52 50 62 90 80 81 87 90 92 92 99 108 112 118 122 124 126 128 130 132 130 131 127 126 125 128 129 132 132 128 123
49 50 51 52 52 54 55 57 60 59 55 55 58 69 73 77 74 80 87 93 96 102 107 112 116 120 122 125 128 127 128 126 125 125 127 128 131 129 129 128 130 130 129
54 59 60 61 59 59 58 59 62 65 67 67 71 74 78 79 78 81 86 90 95 102 107 112 115 118 123 126 128 129 127 126 126 127 126 127 126 128 132 133 131 128 127
54 58 63 67 69 69 67 65 65 67 69 71 72 73 75 77 79 82 85 88 92 97 101 104 108 110 114 119 123 124 125 126 129 131 132 132 130 128 128 127 127 126 126
51 57 62 68 70 74 75 74 71 70 73 74 75 78 78 82 84 85 87 90 92 93 94 95 96 99 103 106 110 113 116 120 125 127 127 127 125 126 126 125 125 124 125
8 88 72 62 68 73 75 78 81 82 82 83 84 84 85 88 91 92 95 96 98 98 98 100 102 101 100 100 100 102 105 110 114 117 118 119 119 121 121 121 123 124 126
251 261 234 142 92 73 73 77 81 93 99 102 101 101 102 101 102 103 104 105 106 106 107 108 107 107 109 109 109 110 111 112 114 116 118 121 122 124 124 123 124 125 127